IT-SPINS (49017 NORAD) Tracking and Keplerian Element Data

This shows tracking and keplerian element data for the satellite.

Feedback or suggestion? Click here.




ElementValue
Catalog49017
NameIT-SPINS
Epoch Orbit1331
Epoch Day268.13620025
Epoch Year2021
RAAN225.0302
Inclination51.6271
Eccentricity0.0008432
Argument of Perigee173.9788
Mean Anonmoly186.1292
Mean Motion15.23065081
Decay Rate2.748E-05
L11 49017U 21013G 21268.13620025 .00002748 00000-0 12900-3 0 9992
L22 49017 51.6271 225.0302 0008432 173.9788 186.1292 15.23065081 13317

Live tracking and technical data element details for IT-SPINS (NORAD 49017). IT-SPINS can be tracked NOW for your location showing map with azimuth and elevation plus other details from your city location.

Track the satellite on the map from your city or location and see movement details for azimuth, elevation, latitude, longitude, range, height, and movement on the map or in text.







IsCatalogInMostPopularTable: catalog: 49017, numindb: 19
Update: records affected: 1



GetName: 49017 IT-SPINS

Hit Count: updated at: Sun, 26 Sep 2021 16:05:23 GMT